Flag for U.S.A. Weather past 2 weeks in Lowell, Massachusetts, U.S.A.

Now
49 °F

Scattered clouds.


Feels Like: 44 °F
Forecast: 34 / 56 °F
Wind: 12 mph from Northwest

Location: Hanscom Field

Current Time: Apr 25, 2015 at 11:37:07 AM

Latest Report: Apr 25, 2015 at 10:56 AM


Visibility: 10 mi

Pressure: 29.77 "Hg

Humidity: 38%

Dew point: 24 °F

Location of LowellLocation

Historic Weather in Lowell — Graph

°F

Lowell temperature yesterday

Maximum temperature yesterday: 48 °F (at 3:56 PM)
Minimum temperature yesterday: 32 °F (at 2:56 AM)
Average temperature yesterday: 41 °F

Past Weeks' High & Low Weather Summary

 TemperatureHumidityPressure
High72 °F (Apr 13, 3:56 PM)100% (Apr 18, 4:56 AM)30.52 "Hg (Apr 18, 4:56 AM)
Low27 °F (Apr 12, 5:56 AM)14% (Apr 15, 12:56 PM)29.53 "Hg (Apr 21, 8:02 AM)
Average50 °F59%29.99 "Hg
* Reported Apr 10 9:03 AM — Apr 25 9:56 AM, Lowell, Weather by CustomWeather, © 2015

Note: Actual official high and low records may vary slightly from our data, if they occured in-between our weather recording intervals... More about our weather records

Advertising

Lowell weather history for previous 24 hours

 ConditionsComfort  
Time TempWeatherWind HumidityBarometerVisibility
9:56 AM
Sat, Apr 25
46 °FScattered clouds.10 mph42%29.79 "Hg10 mi
8:56 AM43 °FSunny.12 mph45%29.80 "Hg10 mi
7:56 AM39 °FPassing clouds.13 mph50%29.82 "Hg10 mi
6:56 AM34 °FSunny.6 mph64%29.82 "Hg10 mi
5:56 AM31 °FClear.6 mph67%29.80 "Hg10 mi
4:56 AM31 °FPassing clouds.5 mph67%29.80 "Hg10 mi
3:56 AM33 °FClear.7 mph61%29.79 "Hg10 mi
2:56 AM34 °FClear.7 mph59%29.80 "Hg10 mi
1:56 AM37 °FPassing clouds.6 mph52%29.80 "Hg10 mi
12:56 AM37 °FPassing clouds.10 mph52%29.81 "Hg10 mi
11:56 PM
Fri, Apr 24
39 °FPassing clouds.14 mph48%29.82 "Hg10 mi
10:56 PM41 °FOvercast.16 mph43%29.83 "Hg10 mi
9:56 PM42 °FOvercast.10 mph41%29.83 "Hg10 mi
8:56 PM42 °FOvercast.13 mph41%29.82 "Hg10 mi
6:56 PM44 °FOvercast.18 mph37%29.79 "Hg10 mi
5:56 PM45 °FOvercast.15 mph37%29.77 "Hg10 mi
4:56 PM46 °FOvercast.13 mph38%29.75 "Hg10 mi
3:56 PM48 °FPartly sunny.15 mph36%29.74 "Hg10 mi
2:56 PM46 °FPartly sunny.13 mph38%29.74 "Hg10 mi
1:56 PM47 °FOvercast.13 mph39%29.75 "Hg10 mi
12:56 PM46 °FPartly sunny.17 mph40%29.75 "Hg10 mi
11:56 AM47 °FPassing clouds.17 mph39%29.75 "Hg10 mi
Weather by CustomWeather, © 2015

See weather overviewHow to use our weather pages